windsock image

Welcome to Bigfield Strip.

anemometer image
     

 Help for dials.  
 
Local Met:

Wind:   
10 Min average:  
19 ° / 0.0 kts (0.0)
12° / 0.0

Temperature:  
8.3°C C
Dew Point:  
7.4°C C
QNH:  
Trend:  
1011.7 hpa mb
+0.3hPa/hr
BigField Strip. This image updates approximately every minute, it can have a two minute delay.  
 

Humidity:  
94 %
Sunrise:   5:40 AMz
Sunset:   5:47 PMz
Updated:  
  UTC
 
   More met info, trends, radar, history etc. available here   

LUTON Metar   EGGW 111220Z AUTO 34007KT 300V010 9999 OVC006 08/07 Q1010
 
  TAF   Luton Airport , United Kingdom (EGGW) 51-52N 000-22W Sep 13, 2017 - 11:50 AM EDT / 2017.09.13 1550 UTC Wind: from the W (280 degrees) at 14 MPH (12 KT):0 Visibility: greater than 7 mile(s):0 Sky conditions: mostly clear Weather: Cumulonimbus clouds observed Temperature: 53 F (12 C) Dew Point: 46 F (8 C) Relative Humidity: 76% Pressure (altimeter): 29.50 in. Hg (0999 hPa) ob: EGGW 131550Z 28012KT 9999 FEW041CB 12/08 Q0999 cycle: 16
 
BENSON Metar   EGUB 111150Z AUTO 36003KT 6000 // FEW004/// SCT037/// BKN044/// 08/08 Q1010
 
  TAF   Benson, United Kingdom (EGUB) 51-37N 001-05W 0M Sep 13, 2017 - 11:50 AM EDT / 2017.09.13 1550 UTC Wind: from the WNW (300 degrees) at 9 MPH (8 KT):0 Visibility: greater than 7 mile(s):0 Sky conditions: partly cloudy Weather: showers in the vicinity; Towering cumulus clouds observed Temperature: 55 F (13 C) Dew Point: 44 F (7 C) Relative Humidity: 66% Pressure (altimeter): 29.53 in. Hg (1000 hPa) ob: EGUB 131550Z 30008KT 9999 VCSH FEW032TCU SCT044 13/07 Q1000 BLU NOSIG cycle: 16
 
Big Field view 1 icon   Big Field view 2 icon   Big Field view 3 icon   Chart AL3a in PDF icon   Chart AL3a in Word icon

WARNING:
This information is provided by the Airstrip unofficial weather station, DO NOT depend on the data provided here for any purpose.
This page is updated for latest Metars & TAF's every 15 minutes. Page designed for a minimum browser size of 1024x768.
© Copyright 2017 BigField Strip. This page auto generated 12:45 UTC - 11/11/2017   Contact Us
Valid HTML 4.01 Transitional     Windows uptime: 17 Days 15 Hours 1 Minutes 36 Seconds    WD started: 9:46 pm 24/10/17    Free memory: 1279MB     Valid CSS!